Location: Ponte Samoggia
(44.5667°N, 11.1333°E)
Time: 21:50:47
(UTC+00:00)

Cosmos 1975 Rocket - Pass Details

Date: 26 May 2022
Orbit: 603 x 633 km, 82.5° (Epoch: 29 June)

Event Time Altitude Azimuth Distance (km) Brightness Sun altitude
Exits shadow 00:39:43 58° 176° (S) 728 3.0 -21.4°
Maximum altitude 00:40:33 83° 98° (E) 637 3.0 -21.3°
Drops below altitude 10° 00:45:02 10° 10° (N) 2,019 6.8 -21.0°
Sets 00:47:17 0° 10° (N) 2,934 7.9 -20.9°
